GW6618 Weather Reports


time (UTC)temp
F
wind
direction
speed
knots
gust
knots
rain 1hr
in
rain 24hr
in
rain mn
in
humidity
%
barometer
mb
20260502222804 65 219 1.7 7.0 0.00 0.00 0.00 33 1012.7
20260502222305 65 193 2.6 8.7 0.00 0.00 0.00 33 1012.7
20260502221303 65 191 2.6 5.2 0.00 0.00 0.00 32 1012.7
20260502215804 65 261 1.7 6.1 0.00 0.00 0.00 32 1013.0
20260502214804 66 234 4.3 5.2 0.00 0.00 0.00 31 1013.1
20260502214304 66 247 5.2 8.7 0.00 0.00 0.00 31 1013.1
20260502213805 66 230 5.2 7.0 0.00 0.00 0.00 31 1013.1
20260502213305 66 244 2.6 5.2 0.00 0.00 0.00 31 1013.3
20260502212804 66 231 4.3 7.8 0.00 0.00 0.00 30 1013.3
20260502212305 67 259 4.3 10.4 0.00 0.00 0.00 30 1013.4
20260502211804 67 236 4.3 8.7 0.00 0.00 0.00 31 1013.5
20260502211304 66 234 3.5 7.0 0.00 0.00 0.00 31 1013.4
20260502210304 67 226 5.2 7.8 0.00 0.00 0.00 31 1013.6
20260502205305 66 188 7.8 11.3 0.00 0.00 0.00 31 1014.0
20260502204804 66 225 2.6 6.1 0.00 0.00 0.00 33 1014.1
20260502204304 66 260 4.3 8.7 0.00 0.00 0.00 31 1014.3
20260502203804 66 266 4.3 7.8 0.00 0.00 0.00 31 1014.3
20260502202804 66 220 4.3 5.2 0.00 0.00 0.00 32 1014.5
20260502202305 65 213 4.3 7.0 0.00 0.00 0.00 31 1014.6
20260502201805 65 261 4.3 7.0 0.00 0.00 0.00 31 1014.8
20260502201305 65 227 4.3 8.7 0.00 0.00 0.00 33 1014.8
20260502200804 64 267 5.2 11.3 0.00 0.00 0.00 32 1014.9
20260502200304 64 210 7.8 14.8 0.00 0.00 0.00 32 1015.0
20260502195805 64 213 7.8 11.3 0.00 0.00 0.00 34 1015.1
20260502195305 64 240 9.6 13.9 0.00 0.00 0.00 33 1015.3
20260502194805 64 221 7.8 8.7 0.00 0.00 0.00 35 1015.4
20260502194304 63 243 5.2 11.3 0.00 0.00 0.00 33 1015.6
20260502193804 63 176 2.6 8.7 0.00 0.00 0.00 35 1015.7
20260502193304 63 215 8.7 13.0 0.00 0.00 0.00 34 1015.8
20260502192804 62 197 4.3 7.0 0.00 0.00 0.00 33 1015.7
20260502192305 63 276 7.0 14.8 0.00 0.00 0.00 33 1015.9
20260502191804 62 231 5.2 8.7 0.00 0.00 0.00 35 1016.0
20260502191305 62 200 8.7 13.0 0.00 0.00 0.00 33 1016.1
20260502190804 62 215 9.6 14.8 0.00 0.00 0.00 32 1016.1
20260502190304 62 258 5.2 10.4 0.00 0.00 0.00 34 1016.2
20260502185804 61 246 4.3 13.0 0.00 0.00 0.00 34 1016.4
20260502184805 61 206 6.1 11.3 0.00 0.00 0.00 35 1016.5
20260502183804 61 184 7.8 14.8 0.00 0.00 0.00 35 1016.7
20260502183305 61 195 6.1 13.9 0.00 0.00 0.00 36 1016.9
20260502182804 60 207 7.0 11.3 0.00 0.00 0.00 36 1016.9
20260502182305 59 187 6.1 7.8 0.00 0.00 0.00 34 1017.0
20260502181804 59 201 8.7 14.8 0.00 0.00 0.00 35 1017.0
20260502180804 59 218 7.8 11.3 0.00 0.00 0.00 35 1017.2
20260502180304 59 211 7.8 13.9 0.00 0.00 0.00 36 1017.2
20260502170304 58 264 5.2 7.0 0.00 0.00 0.00 37 1018.6
20260502164304 57 273 2.6 4.3 0.00 0.00 0.00 35 1018.8
20260502163804 57 224 6.1 7.8 0.00 0.00 0.00 35 1018.9
20260502162804 57 214 6.1 8.7 0.00 0.00 0.00 35 1019.1
20260502162305 57 195 3.5 7.0 0.00 0.00 0.00 37 1019.1
20260502161804 56 211 5.2 7.8 0.00 0.00 0.00 36 1019.2
20260502160804 57 316 0.9 7.8 0.00 0.00 0.00 37 1019.4
20260502160304 56 219 2.6 7.0 0.00 0.00 0.00 36 1019.4
20260502152305 55 275 1.7 7.8 0.00 0.00 0.00 40 1019.8
20260502151804 55 264 1.7 7.0 0.00 0.00 0.00 39 1019.8
20260502151304 55 211 5.2 7.8 0.00 0.00 0.00 40 1019.8
20260502150804 54 314 2.6 6.1 0.00 0.00 0.00 40 1019.9
20260502150304 54 265 3.5 7.0 0.00 0.00 0.00 40 1020.0
20260502130304 44 300 0.9 4.3 0.00 0.00 0.00 55 1020.7
20260502123805 42 297 0.0 1.7 0.00 0.00 0.00 60 1020.6
20260502122804 41 286 0.9 1.7 0.00 0.00 0.00 61 1020.6
20260502122306 41 291 0.9 2.6 0.00 0.00 0.00 61 1020.5
20260502121306 41 292 0.9 1.7 0.00 0.00 0.00 61 1020.5
20260502120803 41 9 0.0 1.7 0.00 0.00 0.00 62 1020.4
20260502120305 40 298 0.9 2.6 0.00 0.00 0.00 61 1020.4
20260502115805 40 273 0.9 1.7 0.00 0.00 0.00 62 1020.5
20260502115306 40 257 0.9 1.7 0.00 0.00 0.00 62 1020.5
20260502114804 39 275 1.7 2.6 0.00 0.00 0.00 63 1020.5
20260502114305 39 284 0.9 2.6 0.00 0.00 0.00 63 1020.5
20260502113804 39 288 0.9 0.9 0.00 0.00 0.00 64 1020.5
20260502112804 39 238 0.9 2.6 0.00 0.00 0.00 64 1020.4
20260502111805 38 239 0.0 0.0 0.00 0.00 0.00 65 1020.4
20260502110804 38 215 0.0 0.0 0.00 0.00 0.00 64 1020.3
20260502110304 38 215 0.0 0.0 0.00 0.00 0.00 64 1020.3
20260502105306 38 215 0.0 0.0 0.00 0.00 0.00 63 1020.2
20260502104804 38 215 0.0 0.0 0.00 0.00 0.00 63 1020.3
20260502104304 38 215 0.0 0.0 0.00 0.00 0.00 63 1020.2
20260502103804 38 215 0.0 0.0 0.00 0.00 0.00 63 1020.3
20260502103304 38 215 0.0 0.0 0.00 0.00 0.00 62 1020.3
20260502101804 39 215 0.0 0.0 0.00 0.00 0.00 62 1020.2
20260502101303 39 215 0.0 0.0 0.00 0.00 0.00 62 1020.2
20260502100304 39 215 0.0 0.9 0.00 0.00 0.00 61 1020.2
20260502091305 39 215 0.0 0.0 0.00 0.00 0.00 59 1020.1
20260502090804 39 215 0.0 0.0 0.00 0.00 0.00 59 1020.1
20260502070804 44 253 1.7 2.6 0.00 0.00 0.00 49 1020.3
20260502070305 44 227 1.7 2.6 0.00 0.00 0.00 49 1020.4
20260502065805 44 246 0.9 2.6 0.00 0.00 0.00 49 1020.4
20260502065306 44 266 1.7 2.6 0.00 0.00 0.00 49 1020.5
20260502064806 44 218 2.6 5.2 0.00 0.00 0.00 49 1020.5
20260502064305 44 244 0.9 1.7 0.00 0.00 0.00 48 1020.5
20260502063805 44 271 0.9 1.7 0.00 0.00 0.00 48 1020.5
20260502063305 44 261 0.9 2.6 0.00 0.00 0.00 48 1020.5
20260502062804 44 177 0.9 4.3 0.00 0.00 0.00 48 1020.6
20260502062306 45 252 0.9 4.3 0.00 0.00 0.00 47 1020.5
20260502061804 45 227 1.7 2.6 0.00 0.00 0.00 47 1020.5
20260502060303 45 255 0.9 2.6 0.00 0.00 0.00 46 1020.5
20260502055805 45 243 0.9 2.6 0.00 0.00 0.00 46 1020.5
20260502054304 45 266 0.9 1.7 0.00 0.00 0.00 46 1020.6
20260502053804 45 264 0.9 2.6 0.00 0.00 0.00 46 1020.6
20260502053305 45 312 0.9 2.6 0.00 0.00 0.00 46 1020.7
20260502052804 45 284 0.0 5.2 0.00 0.00 0.00 45 1020.6
20260502052306 45 257 0.9 1.7 0.00 0.00 0.00 46 1020.6
20260502051804 45 242 1.7 2.6 0.00 0.00 0.00 46 1020.6
20260502051304 45 241 0.9 1.7 0.00 0.00 0.00 46 1020.6
20260502050306 45 281 0.0 0.9 0.00 0.00 0.00 47 1020.6
20260502045804 45 261 0.9 2.6 0.00 0.00 0.00 48 1020.6
20260502045306 44 259 0.0 0.0 0.00 0.00 0.00 47 1020.6
20260502044804 44 259 0.0 0.0 0.00 0.00 0.00 47 1020.6
20260502044304 44 259 0.0 0.0 0.00 0.00 0.00 47 1020.6
20260502043804 44 259 0.9 2.6 0.00 0.00 0.00 47 1020.5
20260502043304 44 247 0.0 0.0 0.00 0.00 0.00 47 1020.5
20260502042804 44 247 0.0 0.0 0.00 0.00 0.00 47 1020.6
20260502042306 44 247 0.0 0.0 0.00 0.00 0.00 47 1020.5
20260502041803 44 247 0.0 0.0 0.00 0.00 0.00 46 1020.5
20260502041304 45 247 0.0 0.0 0.00 0.00 0.00 46 1020.5
20260502040804 45 247 0.0 0.0 0.00 0.00 0.00 45 1020.6
20260502040304 45 247 0.0 1.7 0.00 0.00 0.00 45 1020.5
20260502035804 45 247 0.0 0.9 0.00 0.00 0.00 45 1020.5
20260502034805 45 247 0.9 1.7 0.00 0.00 0.00 44 1020.6
20260502033804 46 262 0.0 0.0 0.00 0.00 0.00 44 1020.6
20260502033304 46 262 0.0 0.0 0.00 0.00 0.00 43 1020.7
20260502032804 46 262 0.0 0.0 0.00 0.00 0.00 42 1020.7
20260502032306 46 262 0.0 0.0 0.00 0.00 0.00 42 1020.6
20260502031804 46 262 0.0 0.0 0.00 0.00 0.00 42 1020.7
20260502031304 46 262 0.0 1.7 0.00 0.00 0.00 42 1020.6
20260502030805 47 262 0.0 1.7 0.00 0.00 0.00 42 1020.6
20260502030304 47 262 0.0 1.7 0.00 0.00 0.00 42 1020.6
20260502025804 47 262 0.0 1.7 0.00 0.00 0.00 41 1020.6
20260502025306 47 278 0.0 1.7 0.00 0.00 0.00 42 1020.6
20260502024304 47 269 0.0 0.0 0.00 0.00 0.00 41 1020.6
20260502023805 48 269 0.0 0.0 0.00 0.00 0.00 41 1020.6
20260502022803 48 269 0.0 0.0 0.00 0.00 0.00 40 1020.6
20260502022306 48 265 0.0 0.0 0.00 0.00 0.00 40 1020.6
20260502021804 48 265 0.0 0.0 0.00 0.00 0.00 40 1020.5
20260502020804 49 265 0.0 0.0 0.00 0.00 0.00 39 1020.5
20260502015804 49 265 0.0 0.0 0.00 0.00 0.00 36 1020.4
20260502015305 50 265 0.0 0.0 0.00 0.00 0.00 36 1020.3
20260502014804 50 321 0.0 0.0 0.00 0.00 0.00 35 1020.2
20260502014305 50 318 0.0 0.0 0.00 0.00 0.00 34 1020.2
20260502013804 50 267 0.0 1.7 0.00 0.00 0.00 35 1020.1
20260502013305 50 290 0.0 0.0 0.00 0.00 0.00 34 1020.1
20260502012804 51 271 0.0 1.7 0.00 0.00 0.00 34 1020.0
20260502012306 51 281 1.7 1.7 0.00 0.00 0.00 34 1020.1
20260502011304 51 291 0.9 2.6 0.00 0.00 0.00 34 1020.0
20260502010804 52 300 0.0 1.7 0.00 0.00 0.00 33 1020.1
20260502010304 52 324 0.9 1.7 0.00 0.00 0.00 33 1020.0
20260502005805 52 319 2.6 6.1 0.00 0.00 0.00 33 1019.9
20260502005306 52 346 1.7 6.1 0.00 0.00 0.00 33 1020.0
20260502004804 52 6 0.9 4.3 0.00 0.00 0.00 33 1020.0
20260502003804 52 43 3.5 5.2 0.00 0.00 0.00 31 1020.0
20260502003304 53 325 1.7 4.3 0.00 0.00 0.00 31 1019.9
20260502002804 53 283 1.7 2.6 0.00 0.00 0.00 30 1019.9
20260502002305 54 233 2.6 6.1 0.00 0.00 0.00 30 1020.0
20260502001304 53 274 1.7 4.3 0.00 0.00 0.00 31 1019.9
20260502000304 54 314 2.6 5.2 0.00 0.00 0.00 31 1019.9
20260501235804 54 351 4.3 7.0 0.00 0.00 0.00 30 1019.9
20260501235305 54 314 4.3 5.2 0.00 0.00 0.00 30 1020.0
20260501233804 54 358 4.3 6.1 0.00 0.00 0.00 31 1019.9
20260501233304 54 339 5.2 7.8 0.00 0.00 0.00 31 1019.9
20260501232804 54 238 1.7 6.1 0.00 0.00 0.00 31 1019.9
20260501232306 54 243 1.7 7.8 0.00 0.00 0.00 31 1019.9
20260501231804 54 320 1.7 7.0 0.00 0.00 0.00 30 1019.9
20260501230805 53 346 2.6 5.2 0.00 0.00 0.00 34 1019.9
20260501230304 54 336 6.1 8.7 0.00 0.00 0.00 32 1020.0
20260501225805 53 22 4.3 7.0 0.00 0.00 0.00 33 1020.0
20260501225306 53 41 4.3 6.1 0.00 0.00 0.00 32 1020.0
20260501224805 53 315 1.7 2.6 0.00 0.00 0.00 31 1020.0
20260501224304 52 41 0.9 4.3 0.00 0.00 0.00 32 1020.0
20260501223805 53 333 2.6 7.0 0.00 0.00 0.00 31 1020.0